INTELSAT 40E (IS-40E)

Last updated on Mon Sep 15 2025 00:02:51 GMT+0000 (Coordinated Universal Time)

1 56174U 23052A 25256.56825478 -.00000184 00000+0 00000+0 0 9992 2 56174 0.0094 150.7212 0002612 37.7764 277.8828 1.00271222 9054
UTC large
Height (km)
Speed (km/s)
/
Latitude / Longitude
Inclination (degrees)
Orbital Period (minutes)
Azimuth
Elevation
Range (km)
Doppler Factor

Next 0 passes for location: London (51.5072 / 0.1276)

Sorry there are no passes over London.